Location: Newark
(48.8656°N, 2.3211°E)
Time: 22:47:19
(UTC+00:00)

Envisat - Pass Details

Date: 15 December 2019
Orbit: 764 x 766 km, 98.1° (Epoch: 21 January)

Event Time Altitude Azimuth Distance (km) Brightness Sun altitude
Rises 17:50:43 0° 172° (S) 3,221 6.3 -18.1°
Reaches altitude 10° 17:53:02 10° 175° (S) 2,299 5.6 -18.5°
Maximum altitude 17:58:05 68° 258° (WSW) 827 3.3 -19.3°
Drops below altitude 10° 18:03:10 10° 342° (NNW) 2,316 5.5 -20.1°
Sets 18:05:30 0° 345° (NNW) 3,247 6.3 -20.5°
